Weather History for Caslav, Czech Republic

Change the Weather History Date:

Tuesday, January 21, 2014

  Actual Average Record
Temperature  
Mean Temperature 32 °F -  
Max Temperature 34 °F - - ()
Min Temperature 30 °F - - ()
Degree Days  
Heating Degree Days 33    
Moisture  
Dew Point 34 °F    
Average Humidity 99    
Maximum Humidity 100    
Minimum Humidity 93    
Precipitation  
Precipitation 0.08 in - - ()
Sea Level Pressure  
Sea Level Pressure 29.78 in    
Wind  
Wind Speed 7 mph ()    
Max Wind Speed 11 mph    
Max Gust Speed -    
Visibility 3.0 miles    
Events Rain , Snow    
T = Trace of Precipitation, MM = Missing Value Source: Averaged Metar Reports

Daily Weather History Graph

Daily Weather History Graph

Search for Another Location

Airport:

Trip Planner

Search our weather history database for the weather conditions in past years. The results will help you decide how hot, cold, wet, or windy it might be!

Date:

Astronomy

Jan. 21, 2014 Rise Set
Actual Time 7:45 AM CET 4:34 PM CET
Civil Twilight 7:09 AM CET 5:10 PM CET
Nautical Twilight 6:29 AM CET 5:50 PM CET
Astronomical Twilight 5:51 AM CET 6:28 PM CET
Moon 10:25 PM CET (1/21) 9:33 AM CET (1/21)
Length of Visible Light 10h 01m
Length of Day
8h 48m
Waning Gibbous, 77% of the Moon is Illuminated
Jan 21
Waning Gibbous
Jan 24
Last Quarter
Jan 30
New
Feb 6
First Quarter
Feb 15
Full

Hourly Weather History & Observations

Time (CET) Temp. Windchill Dew Point Humidity Pressure Visibility Wind Dir Wind Speed Gust Speed Precip Events Conditions
12:00 AM 40 °F - 40 °F 98% 29.67 in 5 mi NNW 4.5 mph - - Rain Light Drizzle
12:00 AM 39.2 °F 35.9 °F 39.2 °F 100% 29.62 in 5.0 mi NNW 4.6 mph - N/A   Light Drizzle
1:00 AM 39 °F - 39 °F 100% 29.68 in 4 mi NNW 4.5 mph - - Rain Light Drizzle
1:00 AM 39.2 °F 35.0 °F 39.2 °F 100% 29.65 in 3.7 mi NNW 5.8 mph - N/A   Light Drizzle
2:00 AM 38 °F - 38 °F 100% 29.69 in 5 mi NW 11.2 mph - - Rain Light Rain
2:00 AM 39.2 °F 32.5 °F 39.2 °F 100% 29.65 in 5.0 mi NW 10.4 mph - N/A Rain Light Rain
3:00 AM 38 °F - 37 °F 97% 29.71 in 5 mi WNW 8.9 mph - - Rain Light Rain
3:00 AM 37.4 °F 30.8 °F 37.4 °F 100% 29.68 in 5.0 mi WNW 9.2 mph - N/A Rain Light Rain
4:00 AM 37 °F - 37 °F 99% 29.72 in 5 mi WNW 8.9 mph - - Rain Light Rain
4:00 AM 37.4 °F 30.8 °F 37.4 °F 100% 29.68 in 5.0 mi WNW 9.2 mph - N/A Rain Light Rain
5:00 AM 36 °F - 36 °F 100% 29.73 in 5 mi WNW 8.9 mph - - Rain Light Rain
5:00 AM 35.6 °F 28.6 °F 35.6 °F 100% 29.68 in 5.0 mi WNW 9.2 mph - N/A Rain Light Rain
6:00 AM 35 °F - 35 °F 97% 29.74 in 5 mi WNW 8.9 mph - - Snow Light Snow
6:00 AM 35.6 °F 29.2 °F 35.6 °F 100% 29.68 in 5.0 mi WNW 8.1 mph - N/A Rain , Snow Light Rain
7:00 AM 35 °F - 34 °F 96% 29.75 in 5 mi WNW 6.7 mph - - Snow Light Snow
7:00 AM 35.6 °F 29.9 °F 33.8 °F 93% 29.71 in 5.0 mi WNW 6.9 mph - N/A Rain , Snow Light Rain
8:00 AM 34 °F - 34 °F 100% 29.78 in 5 mi WNW 8.9 mph - - Snow Light Snow
8:00 AM 33.8 °F 27.0 °F 33.8 °F 100% 29.71 in 5.0 mi WNW 8.1 mph - N/A Snow Light Snow
8:06 AM 33.8 °F 27.0 °F 33.8 °F 100% 29.74 in 1.6 mi WNW 8.1 mph - N/A Snow Light Snow
8:43 AM 33.8 °F 27.7 °F 33.8 °F 100% 29.74 in 0.9 mi WNW 6.9 mph - N/A Snow Light Snow
9:00 AM 33 °F - 33 °F 100% 29.79 in 1 mi West 6.7 mph - - Snow Light Snow
9:00 AM 33.8 °F 27.7 °F 33.8 °F 100% 29.74 in 0.9 mi West 6.9 mph - N/A Snow Light Snow
9:03 AM 33.8 °F 27.7 °F 33.8 °F 100% 29.74 in 1.2 mi West 6.9 mph - N/A Snow Light Snow
9:16 AM 33.8 °F 28.6 °F 33.8 °F 100% 29.74 in 2.5 mi West 5.8 mph - N/A Snow Light Snow
9:44 AM 33.8 °F 28.6 °F 33.8 °F 100% 29.74 in 1.6 mi West 5.8 mph - N/A Snow Light Snow
10:00 AM 33 °F - 33 °F 100% 29.81 in 1 mi West 6.7 mph - - Snow Light Snow
10:00 AM 33.8 °F 27.7 °F 33.8 °F 100% 29.77 in 1.2 mi West 6.9 mph - N/A Snow Light Snow
10:42 AM 33.8 °F 27.7 °F 33.8 °F 100% 29.77 in 3.1 mi West 6.9 mph - N/A Snow Light Snow
11:00 AM 34 °F - 33 °F 97% 29.82 in 3 mi West 6.7 mph - - Snow Light Snow
11:00 AM 33.8 °F 27.7 °F 33.8 °F 100% 29.77 in 3.1 mi West 6.9 mph - N/A Snow Light Snow
12:00 PM 34 °F - 33 °F 96% 29.82 in 2 mi West 8.9 mph - - Snow Light Snow
12:00 PM 33.8 °F 26.4 °F 33.8 °F 100% 29.77 in 2.2 mi WNW 9.2 mph - N/A Snow Light Snow
1:00 PM 34 °F - 33 °F 97% 29.82 in 2 mi WNW 8.9 mph - - Snow Light Snow
1:00 PM 33.8 °F 27.0 °F 33.8 °F 100% 29.77 in 2.5 mi WNW 8.1 mph - N/A Snow Light Snow
2:00 PM 33 °F - 33 °F 100% 29.82 in 2 mi WNW 8.9 mph - - Snow Light Snow
2:00 PM 33.8 °F 26.4 °F 33.8 °F 100% 29.77 in 2.5 mi WNW 9.2 mph - N/A Snow Light Snow
3:00 PM 33 °F - 33 °F 99% 29.83 in 2 mi West 8.9 mph - - Snow Light Snow
3:00 PM 33.8 °F 27.0 °F 33.8 °F 100% 29.77 in 2.5 mi WNW 8.1 mph - N/A Snow Light Snow
3:39 PM 32.0 °F 25.6 °F 32.0 °F 100% 29.80 in 1.6 mi WNW 6.9 mph - N/A Snow Light Snow
4:00 PM 33 °F - 32 °F 96% 29.86 in 1 mi West 6.7 mph - - Snow Light Snow
4:00 PM 32.0 °F 25.6 °F 32.0 °F 100% 29.80 in 1.2 mi West 6.9 mph - N/A Snow Light Snow
5:00 PM 32 °F - 32 °F 100% 29.87 in 1 mi WNW 8.9 mph - - Snow Light Snow
5:00 PM 32.0 °F 24.8 °F 32.0 °F 100% 29.80 in 1.1 mi WNW 8.1 mph - N/A Snow Light Snow
5:42 PM 32.0 °F 25.6 °F 32.0 °F 100% 29.83 in 2.5 mi WNW 6.9 mph - N/A Snow Light Snow
6:00 PM 32 °F - 32 °F 100% 29.88 in 2 mi WNW 6.7 mph - - Snow Light Snow
6:00 PM 32.0 °F 25.6 °F 32.0 °F 100% 29.83 in 2.5 mi WNW 6.9 mph - N/A Snow Light Snow
7:00 PM 32 °F - 32 °F 99% 29.89 in 2 mi WNW 6.7 mph - - Snow Light Snow
7:00 PM 32.0 °F 25.6 °F 32.0 °F 100% 29.83 in 2.5 mi NW 6.9 mph - N/A Snow Light Snow
8:00 PM 32 °F - 31 °F 97% 29.91 in 2 mi WNW 8.9 mph - - Snow Light Snow
8:00 PM 32.0 °F 23.6 °F 32.0 °F 100% 29.86 in 2.5 mi WNW 10.4 mph - N/A Snow Light Snow
9:00 PM 31 °F - 31 °F 100% 29.91 in 2 mi WNW 8.9 mph - - Snow Light Snow
9:00 PM 32.0 °F 24.2 °F 30.2 °F 93% 29.86 in 2.5 mi WNW 9.2 mph - N/A Snow Light Snow
10:00 PM 31 °F - 31 °F 99% 29.92 in 4 mi WNW 8.9 mph - - Snow Light Snow
10:00 PM 30.2 °F 23.4 °F 30.2 °F 100% 29.86 in 3.7 mi WNW 6.9 mph - N/A Snow Light Snow
11:00 PM 31 °F - 30 °F 95% 29.93 in 4 mi WNW 6.7 mph - - Snow Light Snow
11:00 PM 30.2 °F 23.4 °F 30.2 °F 100% 29.86 in 3.7 mi WNW 6.9 mph - N/A Snow Light Snow
11:36 PM 30.2 °F 23.4 °F 30.2 °F 100% 29.86 in 3.7 mi WNW 6.9 mph - N/A Snow Light Snow